Regional Weather Roundup
Issued by NWS

Home | Current Version | Previous Version | Graphics & Text | Print | Product List | Glossary On
Versions: 1 2 3 4 5 6 7 8 9 10 11 12 13 14 15 16 17 18 19 20 21 22 23 24 25 26 27 28 29 30 31 32 33 34 35 36 37 38 39 40 41 42 43 44 45 46 47 48 49 50
000
ASUS43 KIND 241459
RWRIN

WEATHER ROUNDUP FOR INDIANA
NATIONAL WEATHER SERVICE INDIANAPOLIS IN
1100 AM EDT SUN MAY 24 2015

NOTE: "FAIR" INDICATES FEW OR NO CLOUDS BELOW 12,000 FEET WITH NO
SIGNIFICANT WEATHER AND/OR OBSTRUCTIONS TO VISIBILITY.

* - STATION DOES NOT REPORT WEATHER SUCH AS PRECIPITATION OR FOG.

+ - STATION NOT QUALITY CONTROLLED BY THE NATIONAL WEATHER SERVICE.
    USE DATA WITH CAUTION...ESPECIALLY DEWPOINT AND RELATIVE
    HUMIDITY OBSERVATIONS.

INZ001>003-010>013-019-020-241600-
NORTHWEST INDIANA

CITY           SKY/WX    TMP DP  RH WIND       PRES   REMARKS
GARY /AIRPORT/ CLOUDY    68  54  60 SE7       30.18F
RENSSELAER +   CLOUDY    70  54  56 SE7       30.17F

$$

LMZ046-743>745-241600-
SOUTHERN LAKE MICHIGAN

STATION/POSITION TIME  TEMP    WIND        PRES    WAVE
                       AIR SEA DIR/SP/G            HT
                 (UTC) (F)     (DEG/KT/KT) (MB)    (FT)
BURNS HARBOR     1400   68     150/  6/ 10 1022.4F
MICHIGAN CITY    1400   68     140/  8/ 10   N/A
5NW MICH CITY    1400   61 53  140/  4/  6   N/A     1

$$

INZ004-005-014>016-021>024-241600-
NORTH CENTRAL INDIANA

CITY           SKY/WX    TMP DP  RH WIND       PRES   REMARKS
GOSHEN         PTSUNNY   68  53  58 S7        30.23R
SOUTH BEND     CLOUDY    70  51  51 S6        30.21F

$$

INZ006>009-017-018-025>027-241600-
NORTHEAST INDIANA

CITY           SKY/WX    TMP DP  RH WIND       PRES   REMARKS
ANGOLA *+      SUNNY     72  54  53 S7        30.24F
FORT WAYNE     CLOUDY    70  53  54 S9        30.25F

$$

INZ028-029-035-036-043>045-051>053-241600-
WEST CENTRAL INDIANA

CITY           SKY/WX    TMP DP  RH WIND       PRES   REMARKS
CRAWFORDSVL +  PTSUNNY   73  48  41 S10       30.19F
GREENCASTLE +  PTSUNNY   73  54  49 S14       30.21S
LAFAYETTE      CLOUDY    73  56  54 S6        30.17F
TERRE HAUTE    MOSUNNY   75  58  55 S12       30.18F

$$

INZ030>032-037>040-046>048-054>057-064-065-241600-
CENTRAL INDIANA

CITY           SKY/WX    TMP DP  RH WIND       PRES   REMARKS
GREENWOOD *+   PTSUNNY   75  48  38 S10G18    30.23
INDIANAPOLIS   PTSUNNY   73  53  49 S13       30.20F
-EAGLE CREEK   PTSUNNY   74  55  51 S9        30.21F
KOKOMO *+      CLOUDY    68  55  64 S12       30.22F
MT COMFORT *+  PTSUNNY   77  39  25 S8        30.23F
SHELBYVILLE    PTSUNNY   77  54  44 S16       30.23F

$$

INZ033-034-041-042-049-050-058-059-241600-
EAST CENTRAL INDIANA

CITY           SKY/WX    TMP DP  RH WIND       PRES   REMARKS
MUNCIE         CLOUDY    70  53  54 SW7       30.26S

$$

INZ060-061-067>069-081>083-085>088-241600-
SOUTHWEST INDIANA

CITY           SKY/WX    TMP DP  RH WIND       PRES   REMARKS
EVANSVILLE     MOSUNNY   76  56  49 S14       30.19F
HUNTINGBURG *+ SUNNY     75  54  46 S17G23    30.21F

$$

INZ062-063-066-070>080-084-089>092-241600-
SOUTH CENTRAL AND SOUTHEAST INDIANA

CITY           SKY/WX    TMP DP  RH WIND       PRES   REMARKS
BLOOMINGTON    PTSUNNY   75  54  47 S13G20    30.21F
MADISON *+     PTSUNNY   73  48  40 S12G17    30.28F
SEYMOUR +      MOSUNNY   79  54  41 S12       30.23F

$$




USA.gov is the U.S. government's official web portal to all federal, state and local government web resources and services.